Regional Weather Roundup
Issued by NWS

Home | Current Version | Previous Version | Graphics & Text | Print | Product List | Glossary On
Versions: 1 2 3 4 5 6 7 8 9 10 11 12 13 14 15 16 17 18 19 20 21 22 23 24 25 26 27 28 29 30 31 32 33 34 35 36 37 38 39 40 41 42 43 44 45 46 47 48 49 50
000
ASUS43 KFSD 031110
RWRSD

WEATHER ROUNDUP FOR SOUTH DAKOTA
NATIONAL WEATHER SERVICE SIOUX FALLS SD
600 AM CDT SUN MAY 03 2015

NOTE: "FAIR" INDICATES FEW OR NO CLOUDS BELOW 12,000 FEET WITH NO
SIGNIFICANT WEATHER AND/OR OBSTRUCTIONS TO VISIBILITY.


SDZ001>005-009-010-012>017-031200-
NORTHWEST AND NORTH CENTRAL SOUTH DAKOTA

CITY           SKY/WX    TMP DP  RH WIND       PRES   REMARKS
BUFFALO          N/A     51  37  58 NE17      29.86R
FAITH            N/A     49  34  56 N15       29.84R
MOBRIDGE       CLEAR     55  38  52 N18G26    29.77R
$$

SDZ012>016-024>037-041>051-057-063-072>074-031200-
SOUTHWEST AND SOUTH CENTRAL SOUTH DAKOTA

CITY           SKY/WX    TMP DP  RH WIND       PRES   REMARKS
RAPID CTY ARPT PTCLDY    51  31  46 N23G31    29.83R
PIERRE         PTCLDY    52  33  48 N18       29.72R
CUSTER         CLOUDY    46  26  45 N6        29.90R
ELLSWORTH AFB  PTCLDY    52  32  46 N24       29.84R
PHILIP         PTCLDY    52  30  43 N18G28    29.75R
PINE RIDGE     MOCLDY    39  35  86 SW3       29.79R
SPEARFISH      FAIR      46  32  57 CALM      29.95R
WINNER         FAIR      53  39  59 CALM      29.68S
$$

SDZ004>011-016>023-039-040-031200-
NORTHEAST SOUTH DAKOTA

CITY           SKY/WX    TMP DP  RH WIND       PRES   REMARKS
ABERDEEN       CLEAR     51  42  71 N15       29.72R
WATERTOWN      CLEAR     54  51  90 S5        29.69R
BROOKINGS      PTCLDY    57  54  88 SE8       29.71S
SISSETON         N/A     51  49  92 S3        29.69R
$$

SDZ017-020-022-023-036>040-048>070-031200-
SOUTHEAST SOUTH DAKOTA

CITY           SKY/WX    TMP DP  RH WIND       PRES   REMARKS
SIOUX FALLS    PTCLDY    57  52  83 SW3       29.69F
HURON          CLEAR     57  53  86 CALM      29.67R
CHAMBERLAIN    MOCLDY    55  51  86 SE3       29.68S
MITCHELL       PTCLDY    60  54  80 S8        29.68F
YANKTON        PTCLDY    66  52  59 SW13      29.66S
$$

ABBREVIATIONS USED IN REMARKS
   TC - TEMPERATURE IN CELSIUS
  WCI - WIND CHILL INDEX
   HX - HEAT INDEX
  VSB - VISIBILITY



USA.gov is the U.S. government's official web portal to all federal, state and local government web resources and services.